Regional Weather Roundup
Issued by NWS

Home | Current Version | Previous Version | Text Only | Print | Product List | Glossary On
Versions: 1 2 3 4 5 6 7 8 9 10 11 12 13 14 15 16 17 18 19 20 21 22 23 24 25 26 27 28 29 30 31 32 33 34 35 36 37 38 39 40 41 42 43 44 45 46 47 48 49 50
000
ASUS43 KDTX 211710
RWRMI
MICHIGAN HOURLY REGIONAL WEATHER ROUNDUP
NATIONAL WEATHER SERVICE DETROIT/PONTIAC MI
1200 PM EST SAT JAN 21 2017

NOTE: "FAIR" INDICATES FEW OR NO CLOUDS BELOW 12,000 FEET WITH NO
SIGNIFICANT WEATHER AND/OR OBSTRUCTION TO VISIBILITY.

MIZ047>049-052>055-059>063-066>070-074>076-081>083-211800-
SOUTHEAST LOWER MICHIGAN

CITY           SKY/WX    TMP DP  RH WIND       PRES   REMARKS
ADRIAN         SUNNY     53  51  93 SW9       29.65F
ALMA           FOG       43  42  98 CALM      29.63F VSB 1/4
ANN ARBOR      MOSUNNY   51  49  92 S10       29.64F
BAD AXE        FOG       42  42 100 SE6       29.65F VSB 1/2
CARO           CLOUDY    44  44  99 SE6       29.64F FOG
DETROIT CITY   MOSUNNY   52  49  89 SW7       29.66F
DETROIT        MOSUNNY   50  49  96 S5        29.66F FOG
FLINT          CLOUDY    48  47  96 S8        29.64F FOG
GROSSE ILE     SUNNY     45  44  97 S5        29.65F FOG
HILLSDALE      FOG       48  46  93 S9        29.62F VSB 1
HOWELL         FOG       48  47  95 S7        29.63F VSB 3/4

CITY           SKY/WX    TMP DP  RH WIND       PRES   REMARKS
JACKSON        CLOUDY    51  49  92 S7        29.62F FOG
LAMBERTVILLE   SUNNY     58  51  77 S7        29.64F
LANSING        FOG       49  48  97 S9        29.62F VSB 1/4
LAPEER         CLOUDY    46  46  99 S6        29.65F FOG
MASON          FOG       48  48 100 S7        29.62F VSB 1/4
MONROE         SUNNY     54  51  90 S13       29.64F
MT. CLEMENS    FOG       45  45 100 CALM      29.64F VSB 3/16
PONTIAC        FOG       45  44  97 SE3       29.64F VSB 1/4
PORT HOPE        N/A     40  40 100 SE10      29.65F WCI  33
PORT HURON     CLOUDY    46  46 100 S8        29.67F FOG
TRI CITIES     FOG       44  43  96 CALM      29.64F VSB 3/4
MIDLAND        FOG       41  40  97 E5        29.62F VSB 1/4
TROY           FOG       46  44  95 CALM      29.67F VSB 1
SAGINAW HB     CLOUDY    45  43  93 SE5       29.63F FOG
$$
MIZ043>046-050>051-056>058-064>065-071>073-077>080-211800-
SOUTHWEST LOWER MICHIGAN

CITY           SKY/WX    TMP DP  RH WIND       PRES   REMARKS
BATTLE CREEK   SUNNY     56  52  86 S10       29.60
BENTON HARBOR  MOSUNNY   55  49  80 SE9       29.56F
BIG RAPIDS     FOG       39  38  97 CALM      29.59F VSB 1/4
COLDWATER      CLOUDY    52  52 100 S10       29.61F FOG
FREMONT        FOG       44  44 100 E5        29.56F VSB<1/4
HOLLAND        SUNNY     55  51  86 SE15      29.55F
GRAND RAPIDS   CLOUDY    51  49  92 SE8       29.58F FOG
IONIA          FOG       43  43  99 E3        29.59F VSB<1/4
KALAMAZOO      PTSUNNY   55  49  80 SE9       29.59F HAZE
LUDINGTON      FOG       42  42 100 E6        29.54F VSB 1
MARSHALL       CLOUDY    51  50  98 S7        29.61F FOG
MOUNT PLEASANT FOG       39  39  99 CALM      29.61F VSB 1/4
MUSKEGON       CLOUDY    52  50  93 SE10      29.55F FOG
SOUTH HAVEN    CLOUDY    53  50  91 S13       29.56F
$$
MIZ016>042-211800-
NORTHERN LOWER MICHIGAN

CITY           SKY/WX    TMP DP  RH WIND       PRES   REMARKS
ALPENA         CLOUDY    36  34  92 CALM      29.67F FOG
BEAVER ISLAND  CLOUDY    35  35 100 E6        29.60F WCI  30
BELLAIRE       CLOUDY    40  39  98 CALM      29.61F
CADILLAC       FOG       37  36  96 SE6       29.58F VSB<1/4 WCI  32
CHARLEVOIX     CLOUDY    37  37 100 E5        29.63F WCI  34
FRANKFORT      CLOUDY    42  41  99 SE7       29.57S FOG
GAYLORD        FOG       37  34  89 SE8       29.60F VSB 1/4 WCI  31
GRAYLING       FOG       37  37  99 E5        29.62F VSB 1/4 WCI  33
HARBOR SPRINGS CLOUDY    36  35  96 NE9       29.61F WCI  29
HOUGHTON LAKE  CLOUDY    38  38 100 SE6       29.61F WCI  33
MANISTEE       CLOUDY    42  41  96 E8        29.56F FOG
OSCODA         FOG       39  38  97 SW3       29.66F VSB 1/2
PELLSTON       CLOUDY    35  33  92 E6        29.63F WCI  30
ROGERS CITY    CLOUDY    35  34  96 SE3       29.68F FOG
TRAVERSE CITY  CLOUDY    41  37  86 SE3       29.58F
$$
MIZ007>008-015-211800-
EASTERN UPPER MICHIGAN

CITY           SKY/WX    TMP DP  RH WIND       PRES   REMARKS
KINROSS        FOG       33  33 100 SE10      29.66S VSB 1/4 WCI  25
MACKINAC ISLAN CLOUDY    33  33 100 E10G17    29.64S FOG     WCI  25
NEWBERRY       CLOUDY    33  33  96 SE9       29.63S FOG     WCI  26
S. S. MARIE    CLOUDY    35  33  92 E9        29.66S FOG     WCI  28
MUNISING         N/A     36  34  92 S6        29.59F WCI  31
$$
MIZ004>006-011>014-085-211800-
CENTRAL UPPER MICHIGAN

CITY           SKY/WX    TMP DP  RH WIND       PRES   REMARKS
MANISTIQUE     CLOUDY    34  33  97 E7        29.59F WCI  27
ESCANABA       CLOUDY    36  35  96 E6        29.58F FOG     WCI  31
SAWYER-GWINN   CLOUDY    34  34 100 SE7       29.56F FOG     WCI  28
$$
MIZ001>003-009>011-084-211800-
WESTERN UPPER MICHIGAN

CITY           SKY/WX    TMP DP  RH WIND       PRES   REMARKS
IRON MOUNTAIN  CLOUDY    34  32  92 E3        29.54F FOG
HOUGHTON       FOG       34  33  96 E8        29.54S VSB<1/4 WCI  27
COPPER HARBOR    N/A     36  33  89 VRB5      29.57F WCI  32
IRONWOOD       LGT RAIN  36  34  92 SE5       29.50F WCI  32
$$

ABBREVIATIONS USED IN REMARKS
   TC - TEMPERATURE IN CELSIUS
  WCI - WIND CHILL INDEX
   HX - HEAT INDEX
  VSB - VISIBILITY





USA.gov is the U.S. government's official web portal to all federal, state and local government web resources and services.